Home > Weather > Marrakech > Past weeks

Flag for Morocco Weather for the Past 2 Weeks in Marrakech, Morocco

Now
57 °F

Passing clouds.


Feels Like: 57 °F
Forecast: 54 / 69 °F
Wind: 3 mph from Southwest

Location: Marrakech Airport

Current Time: Feb 14, 2016 at 6:03:37 AM

Latest Report: Feb 14, 2016 at 5:30 AM


Visibility: N/A

Pressure: 30.24 "Hg

Humidity: 82%

Dew point: 52 °F

Location of MarrakechLocation

Historic Weather in Marrakech — Graph

°F

Marrakech Temperature Yesterday

Maximum temperature yesterday: 73 °F (at 3:30 PM)
Minimum temperature yesterday: 52 °F (at 5:00 AM)
Average temperature yesterday: 61 °F

High & Low Weather Summary for the Past Weeks

 TemperatureHumidityPressure
High81 °F (Feb 8, 3:30 PM)100% (Feb 11, 4:30 AM)30.51 "Hg (Feb 11, 4:30 AM)
Low41 °F (Jan 31, 7:30 AM)18% (Feb 8, 3:00 PM)30.18 "Hg (Feb 3, 3:30 PM)
Average61 °F55%30.31 "Hg
* Reported Jan 30 5:00 AM — Feb 14 5:00 AM, Marrakech, Weather by CustomWeather, © 2016

Note: Actual official high and low records may vary slightly from our data, if they occured in-between our weather recording intervals... More about our weather records

Advertising

Marrakech Weather History for the Previous 24 Hours

 ConditionsComfort  
Time TempWeatherWind HumidityBarometerVisibility
5:00 AM
Sun, Feb 14
57 °FPassing clouds.5 mph82%30.21 "HgN/A
4:30 AM57 °FPassing clouds.5 mph82%30.21 "HgN/A
4:00 AM57 °FPassing clouds.6 mph82%30.21 "HgN/A
3:30 AM57 °FPassing clouds.6 mph82%30.21 "HgN/A
3:00 AM57 °FPassing clouds.6 mph82%30.21 "HgN/A
2:30 AM57 °FPassing clouds.6 mph82%30.21 "HgN/A
2:00 AM57 °FPassing clouds.6 mph88%30.21 "HgN/A
1:30 AM59 °FPassing clouds.5 mph82%30.21 "HgN/A
1:00 AM59 °FPassing clouds.5 mph82%30.24 "HgN/A
12:30 AM59 °FPassing clouds.6 mph82%30.24 "HgN/A
12:00 AM59 °FPassing clouds.6 mph82%30.24 "HgN/A
11:30 PM
Sat, Feb 13
59 °FPassing clouds.7 mph82%30.24 "HgN/A
11:00 PM59 °FPassing clouds.7 mph88%30.24 "HgN/A
10:30 PM59 °FPassing clouds.6 mph88%30.24 "HgN/A
9:30 PM59 °FPassing clouds.6 mph82%30.24 "Hg4 mi
9:00 PM63 °FPassing clouds.5 mph77%30.24 "HgN/A
8:30 PM63 °FPassing clouds.6 mph77%30.24 "HgN/A
8:00 PM64 °FPassing clouds.7 mph73%30.24 "HgN/A
7:30 PM64 °FPassing clouds.7 mph68%30.21 "HgN/A
7:00 PM64 °FPassing clouds.3 mph68%30.21 "Hg5 mi
6:30 PM68 °FPassing clouds.6 mph60%30.21 "Hg5 mi
6:00 PM70 °FPassing clouds.7 mph60%30.21 "Hg5 mi
5:30 PM72 °FPassing clouds.9 mph57%30.18 "Hg5 mi
5:00 PM73 °FPartly sunny.9 mph50%30.18 "Hg5 mi
4:30 PM73 °FClear.9 mph50%30.18 "Hg5 mi
4:00 PM73 °FClear.10 mph50%30.18 "Hg5 mi
3:30 PM73 °FClear.8 mph50%30.18 "Hg5 mi
3:00 PM72 °FClear.9 mph53%30.18 "Hg5 mi
2:30 PM72 °FClear.7 mph50%30.18 "Hg5 mi
2:00 PM72 °FClear.7 mph50%30.21 "Hg5 mi
1:30 PM70 °FClear.7 mph53%30.21 "Hg5 mi
1:00 PM68 °FClear.7 mph60%30.21 "Hg5 mi
12:30 PM68 °FClear.7 mph64%30.24 "Hg5 mi
12:00 PM68 °FClear.5 mph60%30.24 "Hg5 mi
11:30 AM64 °FClear.3 mph68%30.24 "Hg5 mi
10:30 AM57 °FScattered clouds.2 mph88%30.27 "Hg4 mi
9:30 AM55 °FScattered clouds.5 mph94%30.27 "Hg4 mi
9:00 AM54 °FScattered clouds.3 mph94%30.27 "Hg4 mi
8:30 AM54 °FScattered clouds.3 mph88%30.24 "HgN/A
8:00 AM54 °FScattered clouds.2 mph88%30.24 "HgN/A
7:30 AM52 °FSunny.3 mph88%30.24 "Hg10 mi
7:00 AM54 °FSunny.3 mph88%30.24 "Hg10 mi
6:30 AM52 °FSunny.2 mph88%30.21 "Hg10 mi
6:00 AM54 °FClear.3 mph82%30.21 "Hg10 mi
Weather by CustomWeather, © 2016

See weather overviewHow to use our weather pages